"Pseudo-MPEC" for C0Z0WD2

Created 2019 Sep 15 9:07:05 UT using Find_Orb

Click here for an explanation of pseudo-MPECs

 
 Astrometry: 
     C0Z0WD2  C2019 09 07.36349 23 48 34.16 -12 39 40.6    ~979M 21.2 GVNEOCPG96
     C0Z0WD2  C2019 09 07.36827 23 48 34.44 -12 39 36.7    ~979M 21.7 GVNEOCPG96
     C0Z0WD2  C2019 09 07.37305 23 48 34.73 -12 39 33.2    ~979M 22.4 GVNEOCPG96
     C0Z0WD2  C2019 09 07.46987 23 48 40.86 -12 38 20.7    ~97Bq 22.2 GVNEOCPG96
     C0Z0WD2  C2019 09 07.47349 23 48 41.07 -12 38 19.0    ~97Bq 22.6 GVNEOCPG96
     C0Z0WD2  C2019 09 07.47711 23 48 41.37 -12 38 14.0    ~97Bq 22.1 GVNEOCPG96
     C0Z0WD2  C2019 09 07.48114 23 48 41.67 -12 38 11.7    ~97Bq       VNEOCPG96

Station data:
(G96) Mt. Lemmon Survey  (N32.442754 W110.788720)  US/Arizona.  Observers T.
   A. Pruyne, B. M. Africano, E. J. Christensen, G. A. Farneth, D. C. Fuls,
   A. R. Gibbs, A. D. Grauer, H. Groeller, J. A. Johnson, R. A. Kowalski, S.
   M. Larson, G. J. Leonard, D. Rankin, R. L. Seaman, F. C. Shelly. 1.5-m
   reflector + 10K CCD.

Orbital elements:  C0Z0WD2
   Perihelion 2019 Aug 27.323422 +/- 37 TT =  7:45:43 (JD 2458722.823422)
Epoch 2019 Sep  7.0 TT = JDT 2458733.5   Earth MOID: 0.2247   Ma: 0.0078
M   3.06018545 +/- 21               (J2000 ecliptic)          AutoNEOCP
n   0.28662604 +/- 0.189            Peri.  270.24571 +/- 90
a   2.27820227 +/- 1                Node    65.85066 +/- 49
e   0.4594676 +/- 0.157             Incl.    1.99883 +/- 0.9
P   3.44                   H 24.4   G  0.15   U 11.6  SR
q 1.23144204 +/- 0.17    Q 3.32496250 +/- 1.84
From 7 observations 2019 Sept. 7 (2.8 hr); mean residual 0".52
Residuals in arcseconds: 
190907 G96  .19+  .22-    190907 G96  .27-  .14-    190907 G96  .69+  .25+    
190907 G96  .03-  .16+    190907 G96  .68-  1.2-    
190907 G96  .11-  .13+    190907 G96  .21+  1.0+    

Ephemerides (geocentric):
Date (UTC) HH   RA              Dec         delta   r     elong  mag " sig PA
---- -- -- --  -------------   -----------  ------ ------ -----  --- ---- ---
2019 09 15 09  23 57 28.104   -10 57 50.24  .24494 1.2475 169.7 22.4 555' 156
2019 09 15 10  23 57 30.540   -10 57 17.57  .24501 1.2476 169.8 22.4 581' 156
2019 09 15 11  23 57 32.972   -10 56 44.89  .24508 1.2477 169.8 22.4 609' 156
2019 09 15 12  23 57 35.401   -10 56 12.21  .24516 1.2477 169.8 22.4 639' 156
2019 09 15 13  23 57 37.827   -10 55 39.51  .24523 1.2478 169.8 22.4 671' 156
2019 09 15 14  23 57 40.250   -10 55 06.81  .24531 1.2479 169.8 22.4 704' 156
2019 09 15 15  23 57 42.670   -10 54 34.10  .24538 1.2480 169.8 22.4 739' 156
2019 09 15 16  23 57 45.086   -10 54 01.38  .24546 1.2480 169.8 22.4 776' 157
2019 09 15 17  23 57 47.499   -10 53 28.66  .24553 1.2481 169.8 22.4 814' 157
2019 09 15 18  23 57 49.909   -10 52 55.92  .24561 1.2482 169.9 22.4 854' 157
2019 09 15 19  23 57 52.315   -10 52 23.18  .24568 1.2482 169.9 22.4 895' 157
2019 09 15 20  23 57 54.718   -10 51 50.43  .24576 1.2483 169.9 22.4 937' 157
2019 09 15 21  23 57 57.119   -10 51 17.67  .24584 1.2484 169.9 22.4 980' 158
2019 09 15 22  23 57 59.515   -10 50 44.90  .24591 1.2484 169.9 22.4  17d 158
2019 09 15 23  23 58 01.909   -10 50 12.12  .24599 1.2485 169.9 22.4  18d 158
2019 09 16 00  23 58 04.300   -10 49 39.34  .24607 1.2486 169.9 22.4  18d 159
2019 09 16 01  23 58 06.687   -10 49 06.55  .24614 1.2487 169.9 22.4  19d 159
2019 09 16 02  23 58 09.071   -10 48 33.75  .24622 1.2487 169.9 22.4  20d 159
2019 09 16 03  23 58 11.452   -10 48 00.94  .24630 1.2488 170.0 22.4  21d 160
2019 09 16 04  23 58 13.830   -10 47 28.13  .24637 1.2489 170.0 22.4  21d 160
2019 09 16 05  23 58 16.204   -10 46 55.31  .24645 1.2490 170.0 22.4  22d 160
2019 09 16 06  23 58 18.576   -10 46 22.47  .24653 1.2490 170.0 22.4  22d 161
2019 09 16 07  23 58 20.944   -10 45 49.64  .24661 1.2491 170.0 22.4  23d 161
2019 09 16 08  23 58 23.309   -10 45 16.79  .24669 1.2492 170.0 22.4  24d 161
2019 09 16 09  23 58 25.671   -10 44 43.94  .24676 1.2492 170.0 22.4  24d 162
2019 09 16 10  23 58 28.030   -10 44 11.07  .24684 1.2493 170.0 22.4  25d 162
2019 09 16 11  23 58 30.386   -10 43 38.21  .24692 1.2494 170.0 22.4  25d 162
2019 09 16 12  23 58 32.738   -10 43 05.33  .24700 1.2495 170.1 22.4  26d 162
2019 09 16 13  23 58 35.088   -10 42 32.45  .24708 1.2495 170.1 22.4  26d 162
2019 09 16 14  23 58 37.434   -10 41 59.55  .24716 1.2496 170.1 22.4  27d 163
2019 09 16 15  23 58 39.777   -10 41 26.65  .24724 1.2497 170.1 22.4  27d 163
2019 09 16 16  23 58 42.117   -10 40 53.75  .24732 1.2498 170.1 22.4  28d 163
2019 09 16 17  23 58 44.454   -10 40 20.83  .24740 1.2498 170.1 22.4  28d 163
2019 09 16 18  23 58 46.788   -10 39 47.91  .24748 1.2499 170.1 22.4  29d 163
2019 09 16 19  23 58 49.118   -10 39 14.98  .24756 1.2500 170.1 22.4  29d 163
2019 09 16 20  23 58 51.446   -10 38 42.05  .24764 1.2501 170.1 22.4  30d 163
2019 09 16 21  23 58 53.770   -10 38 09.10  .24772 1.2501 170.1 22.4  30d 163
2019 09 16 22  23 58 56.092   -10 37 36.15  .24780 1.2502 170.2 22.4  31d 163
2019 09 16 23  23 58 58.410   -10 37 03.20  .24788 1.2503 170.2 22.4  31d 164
2019 09 17 00  23 59 00.725   -10 36 30.23  .24796 1.2504 170.2 22.4  32d 164
2019 09 17 01  23 59 03.037   -10 35 57.26  .24804 1.2504 170.2 22.4  32d 164
2019 09 17 02  23 59 05.346   -10 35 24.28  .24812 1.2505 170.2 22.4  33d 164
2019 09 17 03  23 59 07.652   -10 34 51.29  .24821 1.2506 170.2 22.4  33d 164
2019 09 17 04  23 59 09.955   -10 34 18.30  .24829 1.2507 170.2 22.4  33d 164
2019 09 17 05  23 59 12.255   -10 33 45.30  .24837 1.2507 170.2 22.4  34d 164
2019 09 17 06  23 59 14.552   -10 33 12.29  .24845 1.2508 170.2 22.4  34d 164
2019 09 17 07  23 59 16.846   -10 32 39.28  .24854 1.2509 170.2 22.4  35d 165
2019 09 17 08  23 59 19.137   -10 32 06.25  .24862 1.2510 170.3 22.4  35d 165